Temp
97 98 97 97 96 95 93 91 90 90 91 92 92 94 95 98 99 100 97 96 97 97 96 99 97 96 94 91 91 92 91 94 89 92 88 92 94 90 89 86 85 82 76
96 97 97 96 96 95 92 90 90 89 89 93 93 95 96 99 99 100 98 97 96 98 97 94 96 94 95 91 91 89 89 91 87 81 81 83 87 83 84 85 81 79 72
96 96 95 95 96 94 93 91 89 90 90 91 93 93 93 94 96 97 99 98 96 97 95 94 94 93 92 95 92 91 87 88 87 79 77 76 75 76 81 81 83 77 72
97 98 96 95 96 96 96 93 91 90 90 90 91 88 92 93 98 97 100 97 96 96 96 94 93 92 95 92 94 96 90 88 85 79 78 77 73 66 64 71 69 70 70
98 98 99 97 98 98 98 96 91 90 90 89 89 91 88 95 97 97 93 93 94 95 96 95 93 92 95 94 91 89 89 89 87 86 79 72 70 68 64 61 66 67 68
100 99 100 100 98 99 98 97 92 88 88 88 88 87 88 90 93 93 94 97 99 100 97 95 94 93 93 92 93 91 89 87 88 90 83 70 73 65 63 61 63 65 68
99 99 98 97 97 97 97 97 92 87 89 89 88 88 88 88 89 89 94 94 97 98 97 93 92 94 93 92 91 90 89 89 89 87 85 77 84 69 66 62 63 63 67
101 99 100 98 97 96 96 96 94 89 89 89 88 88 88 92 93 92 94 95 96 97 96 93 93 92 92 92 91 90 93 90 89 87 84 87 88 70 68 65 64 63 64
100 100 102 101 99 98 97 97 95 91 90 90 89 88 88 88 93 92 92 94 93 96 93 92 92 92 92 91 90 90 90 89 88 87 83 82 82 77 72 68 68 65 60
99 101 101 101 102 102 101 99 97 93 92 93 91 91 90 89 90 91 89 91 93 91 90 90 91 91 91 91 89 90 91 88 88 85 85 84 83 77 72 69 73 70 63
101 101 102 102 104 105 103 101 99 97 93 94 94 92 92 91 90 90 90 90 91 90 89 89 89 89 89 89 88 87 88 87 86 86 84 85 85 77 72 72 72 67 65
103 104 102 103 102 102 102 101 99 97 96 93 92 91 91 91 91 90 91 92 90 91 90 90 89 89 89 89 88 87 87 85 85 86 85 84 85 79 75 75 71 67 66
99 101 102 99 100 100 99 98 97 98 98 94 92 90 89 88 88 88 89 90 90 90 92 91 88 88 89 87 87 86 86 86 87 84 82 82 82 79 77 75 69 67 66
94 97 97 97 96 96 96 96 97 99 97 94 92 90 90 89 89 89 89 89 89 90 90 90 89 88 88 87 87 86 85 85 84 85 85 83 80 78 77 73 68 66 66
92 93 93 93 93 92 92 92 94 97 97 92 91 90 91 92 91 91 91 91 90 90 90 89 88 87 88 86 78 80 81 83 84 84 84 82 76 71 74 71 68 67 65
87 88 91 92 91 90 90 90 90 92 94 91 90 91 90 91 89 90 90 89 89 89 87 87 87 83 87 61 62 68 85 80 80 78 78 79 76 72 67 69 69 68 65
85 86 86 89 90 91 90 91 90 91 89 88 89 89 89 88 88 89 88 88 87 86 86 83 81 79 78 60 61 64 80 83 81 81 81 79 76 72 70 65 65 65 66
83 85 87 89 92 93 91 90 93 89 88 88 88 89 88 88 88 87 86 85 86 85 82 79 79 79 74 58 59 63 82 83 80 80 79 79 74 72 70 67 67 66 68
85 87 89 90 90 91 91 89 90 89 89 88 88 88 88 87 86 85 84 84 83 79 78 79 78 77 72 56 56 67 84 81 76 78 77 80 77 63 65 73 66 64 74
85 86 89 91 90 89 90 87 88 88 87 89 88 88 87 86 85 84 81 81 78 80 83 78 75 65 74 55 54 60 86 79 78 74 76 61 70 60 63 76 74 66 65
83 85 87 88 87 88 85 86 88 85 88 89 86 85 84 84 83 79 79 77 79 77 75 70 71 73 68 66 54 55 80 80 80 75 72 73 58 57 57 64 75 65 65
82 84 84 85 87 86 84 84 85 87 85 83 83 79 78 81 78 75 77 78 77 72 69 69 71 76 75 56 56 54 55 61 77 74 72 72 55 54 56 65 56 57 64
79 82 82 81 84 81 79 79 82 81 83 79 78 78 77 79 77 76 75 74 79 77 75 71 73 80 81 79 58 56 57 59 73 75 62 56 53 55 58 56 56 56 78
78 80 79 79 78 80 76 77 78 77 77 75 73 76 72 74 76 80 82 83 83 82 81 78 79 81 80 76 75 74 79 63 69 66 68 65 64 58 66 68 68 80 82
77 78 76 76 76 78 76 74 74 76 73 70 73 74 68 63 66 65 71 72 63 63 79 77 76 75 77 65 51 51 69 71 63 63 68 64 66 71 71 74 79 81 79
77 76 76 75 75 74 73 71 70 72 69 68 72 68 67 71 70 66 58 49 48 45 43 43 56 63 49 45 43 45 45 46 49 66 65 63 64 62 65 71 73 75 72
MSLP
1008.20 1008.85 1009.63 1010.40 1010.99 1011.66 1012.43 1013.10 1013.53 1013.96 1014.42 1014.39 1014.22 1013.93 1013.63 1013.43 1013.47 1013.49 1013.89 1014.14 1014.05 1014.13 1014.30 1013.88 1014.22 1014.35 1014.39 1014.61 1014.56 1014.31 1014.07 1013.55 1014.29 1013.38 1013.67 1013.21 1013.51 1013.90 1014.18 1014.48 1014.73 1014.79 1015.09
1007.33 1008.01 1008.78 1009.64 1010.35 1011.04 1011.84 1012.58 1013.09 1013.62 1014.16 1014.14 1014.17 1013.88 1013.58 1013.31 1013.33 1013.31 1013.66 1013.81 1013.99 1013.98 1014.07 1014.32 1014.10 1014.32 1014.22 1014.45 1014.36 1014.41 1014.07 1013.62 1014.30 1014.49 1014.09 1013.27 1013.38 1014.23 1014.55 1014.92 1015.01 1015.18 1015.50
1006.17 1007.13 1008.03 1008.81 1009.60 1010.26 1011.06 1011.83 1012.55 1013.08 1013.66 1013.89 1014.06 1014.12 1014.06 1013.93 1013.46 1013.07 1013.20 1013.53 1013.76 1013.80 1013.93 1014.00 1014.11 1014.24 1014.36 1013.55 1013.89 1013.83 1014.06 1013.67 1013.98 1014.71 1014.55 1013.91 1013.61 1014.23 1014.61 1015.03 1015.24 1015.33 1015.52
1005.43 1006.03 1007.02 1008.02 1008.73 1009.33 1010.16 1011.05 1011.88 1012.53 1013.11 1013.64 1013.65 1013.68 1013.27 1012.81 1012.52 1013.08 1013.14 1013.41 1013.52 1013.61 1013.62 1013.73 1013.79 1013.97 1013.75 1013.68 1013.38 1013.07 1013.63 1013.68 1013.68 1014.55 1014.69 1014.31 1014.13 1014.09 1014.91 1015.05 1015.28 1015.41 1015.11
1004.45 1005.17 1005.89 1006.84 1007.81 1008.54 1009.25 1010.06 1011.11 1011.86 1012.40 1013.04 1013.35 1013.39 1013.46 1012.74 1012.85 1012.88 1013.38 1013.40 1013.47 1013.37 1013.32 1013.37 1013.44 1013.59 1013.43 1013.15 1013.35 1013.26 1013.24 1013.23 1013.42 1013.03 1014.02 1014.39 1014.61 1014.30 1014.81 1014.82 1015.03 1015.16 1014.99
1003.27 1004.21 1005.11 1006.00 1006.87 1007.79 1008.65 1009.37 1010.46 1011.36 1011.99 1012.48 1012.98 1013.20 1012.99 1012.94 1012.68 1012.90 1012.85 1012.62 1012.46 1012.56 1012.86 1013.09 1013.16 1013.21 1013.19 1013.00 1012.89 1012.93 1012.92 1012.88 1012.62 1012.39 1013.06 1013.69 1013.68 1014.08 1014.50 1014.38 1014.32 1014.64 1014.66
1002.61 1003.46 1004.45 1005.38 1006.29 1007.08 1007.92 1008.64 1009.67 1010.61 1011.28 1011.87 1012.36 1012.73 1012.92 1013.06 1012.96 1012.98 1012.60 1012.48 1012.26 1012.17 1012.27 1013.00 1013.05 1012.83 1012.79 1012.93 1012.84 1012.61 1012.44 1012.32 1012.16 1012.10 1012.12 1012.80 1012.35 1013.16 1013.55 1013.76 1014.27 1014.06 1014.51
1001.68 1002.60 1003.46 1004.63 1005.59 1006.42 1007.31 1008.00 1008.77 1009.87 1010.56 1011.10 1011.67 1012.14 1012.53 1012.59 1012.51 1012.60 1012.61 1012.37 1012.27 1012.24 1012.46 1012.84 1012.83 1012.79 1012.76 1012.62 1012.44 1012.42 1011.88 1011.92 1011.85 1011.65 1011.86 1011.77 1011.19 1012.77 1013.04 1013.58 1014.04 1013.88 1013.98
1001.09 1001.99 1002.60 1003.65 1004.55 1005.39 1006.27 1007.05 1007.88 1008.94 1009.62 1010.24 1010.92 1011.47 1011.92 1012.19 1011.86 1012.17 1012.41 1012.45 1012.48 1012.35 1012.47 1012.69 1012.66 1012.58 1012.43 1012.34 1012.32 1012.15 1011.74 1011.71 1011.54 1011.28 1011.53 1011.40 1011.04 1011.76 1012.41 1012.98 1013.50 1013.54 1013.44
1001.13 1001.60 1002.26 1002.86 1003.69 1004.40 1005.34 1006.27 1007.06 1007.91 1008.66 1009.32 1010.08 1010.61 1011.00 1011.46 1011.70 1011.94 1012.08 1012.07 1012.11 1012.39 1012.45 1012.48 1012.42 1012.28 1012.18 1012.12 1012.09 1011.74 1011.31 1011.38 1011.05 1011.12 1010.83 1010.58 1010.51 1011.04 1011.70 1012.32 1012.55 1012.92 1013.41
1000.64 1001.21 1001.60 1002.32 1002.89 1003.50 1004.40 1005.34 1006.19 1006.98 1007.88 1008.48 1009.02 1009.67 1010.18 1010.61 1011.10 1011.27 1011.41 1011.65 1011.85 1012.03 1012.18 1012.20 1012.16 1012.15 1012.05 1011.95 1011.83 1011.63 1011.30 1011.05 1010.77 1010.44 1010.56 1010.02 1009.90 1010.50 1011.23 1011.76 1012.16 1012.72 1013.18
1000.42 1000.49 1001.09 1001.62 1002.31 1002.94 1003.54 1004.30 1005.22 1006.05 1006.82 1007.62 1008.33 1008.92 1009.55 1009.94 1010.26 1010.57 1010.76 1011.07 1011.36 1011.52 1011.75 1011.79 1011.82 1011.82 1011.79 1011.68 1011.38 1011.20 1011.07 1010.98 1010.57 1010.13 1009.81 1009.69 1009.52 1009.98 1010.68 1011.07 1011.79 1012.52 1012.86
1000.74 1000.67 1000.76 1001.29 1001.82 1002.52 1003.19 1003.93 1004.65 1005.13 1005.95 1006.80 1007.59 1008.24 1008.79 1009.27 1009.56 1009.96 1010.33 1010.62 1010.90 1011.05 1011.14 1011.21 1011.44 1011.53 1011.49 1011.48 1011.40 1011.32 1010.98 1010.65 1010.32 1010.33 1010.06 1009.73 1009.47 1009.73 1010.25 1010.86 1011.64 1012.43 1012.84
1001.38 1001.19 1001.07 1001.36 1001.88 1002.40 1002.83 1003.51 1004.03 1004.58 1005.40 1006.21 1006.85 1007.44 1007.89 1008.39 1008.88 1009.42 1009.85 1010.15 1010.45 1010.53 1010.69 1010.94 1011.17 1011.38 1011.51 1011.47 1011.33 1011.28 1010.96 1010.64 1010.42 1010.08 1009.76 1009.77 1009.79 1009.87 1010.08 1010.78 1011.68 1012.46 1012.81
1001.93 1001.74 1001.79 1001.85 1002.15 1002.42 1002.85 1003.29 1003.85 1004.13 1004.76 1005.66 1006.24 1006.67 1007.23 1007.72 1008.23 1008.65 1009.10 1009.51 1009.90 1010.13 1010.49 1010.76 1011.12 1011.34 1011.34 1011.57 1012.20 1011.77 1011.28 1010.78 1010.39 1010.15 1010.03 1010.06 1010.41 1010.25 1010.19 1011.00 1011.85 1012.48 1012.78
1002.94 1002.68 1002.23 1002.11 1002.25 1002.59 1002.77 1003.06 1003.38 1003.86 1004.42 1005.14 1005.75 1006.30 1006.80 1007.28 1007.78 1008.12 1008.61 1009.14 1009.59 1010.04 1010.68 1011.02 1011.13 1011.79 1011.73 1012.62 1012.71 1012.41 1010.92 1011.09 1011.04 1010.79 1010.67 1010.53 1010.49 1010.55 1010.75 1011.20 1011.88 1012.31 1012.57
1003.62 1003.26 1002.90 1002.30 1002.13 1002.40 1002.86 1002.95 1003.38 1003.82 1004.19 1004.75 1005.33 1005.82 1006.38 1006.86 1007.36 1007.80 1008.30 1008.83 1009.44 1010.09 1010.47 1011.23 1011.85 1012.16 1012.48 1012.93 1012.70 1012.27 1011.59 1011.13 1011.02 1010.76 1010.54 1010.55 1010.93 1011.03 1011.42 1012.02 1012.45 1012.94 1012.93
1004.45 1003.83 1003.15 1002.60 1002.15 1002.04 1002.50 1002.99 1002.91 1003.47 1004.14 1004.49 1004.77 1005.28 1005.84 1006.40 1006.96 1007.50 1008.07 1008.70 1009.39 1009.97 1010.82 1011.55 1012.01 1012.29 1013.03 1013.23 1012.76 1012.21 1011.54 1011.21 1011.37 1011.17 1011.04 1011.11 1011.50 1011.46 1011.75 1012.27 1012.89 1013.17 1013.43
1004.98 1004.15 1003.39 1002.66 1002.45 1002.26 1002.47 1002.79 1002.80 1003.04 1003.53 1004.01 1004.54 1004.83 1005.34 1005.92 1006.66 1007.32 1008.01 1008.72 1009.38 1010.35 1011.07 1011.65 1012.16 1012.57 1013.32 1013.55 1013.11 1012.38 1011.63 1011.63 1011.84 1011.74 1011.85 1011.52 1011.81 1012.27 1012.22 1012.19 1012.73 1013.10 1013.10
1005.46 1004.56 1003.78 1003.11 1002.60 1002.70 1002.72 1002.89 1002.72 1002.87 1003.31 1003.46 1004.56 1005.21 1005.78 1005.98 1006.63 1007.35 1008.19 1008.89 1009.93 1010.32 1010.80 1011.71 1012.47 1013.13 1013.19 1013.80 1013.46 1013.09 1011.60 1011.92 1011.99 1012.33 1012.25 1012.51 1012.50 1012.63 1012.67 1012.34 1012.48 1013.02 1013.32
1005.66 1005.11 1004.23 1003.58 1003.26 1003.13 1003.17 1003.00 1002.87 1003.03 1003.18 1003.86 1004.40 1005.34 1005.82 1006.79 1006.97 1007.77 1008.54 1009.32 1009.55 1010.47 1011.27 1012.32 1012.85 1013.10 1013.54 1013.91 1014.00 1013.62 1012.48 1012.22 1012.03 1012.36 1012.71 1012.96 1013.19 1013.09 1013.06 1012.78 1012.78 1013.03 1013.15
1005.75 1005.31 1004.73 1004.03 1003.53 1003.54 1003.60 1003.24 1002.80 1003.30 1003.64 1004.63 1004.29 1006.19 1005.58 1006.60 1008.35 1008.33 1008.91 1009.36 1009.91 1010.68 1011.84 1012.54 1012.83 1012.82 1013.15 1013.83 1014.13 1014.21 1013.99 1013.57 1012.52 1012.64 1013.02 1013.07 1013.50 1013.46 1013.45 1013.51 1013.78 1013.83 1013.82
1006.09 1005.62 1005.08 1004.76 1004.15 1004.26 1004.27 1003.87 1003.45 1003.78 1004.29 1004.67 1005.40 1006.11 1005.81 1006.15 1008.68 1009.05 1009.55 1010.24 1010.20 1010.67 1011.29 1012.15 1012.53 1012.26 1012.66 1013.10 1013.86 1014.07 1013.98 1013.81 1012.96 1013.09 1013.46 1013.42 1013.61 1013.48 1013.42 1013.53 1013.82 1013.89 1013.22
1006.18 1005.89 1005.50 1005.13 1004.82 1004.57 1004.62 1004.35 1004.36 1004.71 1005.18 1005.40 1005.71 1006.10 1006.59 1006.68 1008.85 1009.21 1009.12 1010.05 1010.53 1010.59 1010.65 1011.42 1011.77 1012.30 1012.83 1013.30 1013.72 1013.81 1013.21 1013.60 1013.55 1013.60 1013.79 1013.87 1013.58 1013.81 1013.21 1013.60 1013.89 1013.12 1012.84
1006.18 1005.95 1005.91 1005.46 1005.09 1004.83 1004.78 1004.80 1004.64 1004.80 1005.39 1005.89 1006.09 1006.49 1007.17 1007.71 1008.33 1010.84 1010.59 1011.09 1013.10 1013.05 1012.00 1012.33 1012.61 1013.13 1013.40 1014.98 1015.49 1015.43 1014.41 1014.14 1014.23 1013.91 1013.71 1014.01 1013.91 1013.57 1013.47 1013.06 1012.65 1012.81 1013.02
1005.87 1005.66 1005.44 1005.36 1005.15 1005.01 1005.08 1005.04 1004.97 1004.89 1005.45 1005.94 1006.32 1006.80 1007.71 1007.78 1009.27 1010.40 1011.10 1012.09 1012.95 1013.44 1013.51 1014.43 1014.20 1014.77 1015.50 1015.92 1015.64 1015.41 1015.07 1014.61 1014.30 1014.09 1013.95 1014.14 1013.85 1013.92 1013.88 1013.49 1013.16 1012.79 1013.19
Wind_Speed
16 15 15 14 14 13 13 13 12 10 8 7 7 6 6 5 5 4 2 3 4 4 2 3 2 2 4 5 5 4 4 6 5 6 7 1 3 6 5 4 3 4 4
16 15 15 15 15 15 15 15 14 12 10 8 6 5 4 4 4 3 2 3 4 2 3 3 3 2 4 3 4 3 5 5 5 3 3 5 4 5 4 3 3 2 0
18 17 15 15 16 16 16 15 15 14 12 11 7 6 6 6 7 6 5 5 5 4 4 4 5 4 5 7 4 4 4 5 1 3 2 2 3 3 3 1 1 1 1
16 15 17 16 16 16 16 16 15 14 12 12 9 9 8 7 3 2 1 4 4 4 6 7 6 6 7 7 8 5 6 5 6 4 3 4 2 4 5 2 2 2 4
18 18 17 17 17 15 14 15 15 15 13 12 12 10 11 7 6 5 3 5 4 5 5 5 6 7 7 7 9 9 8 6 6 4 5 4 3 1 3 7 6 3 3
20 18 16 15 13 14 14 14 15 14 14 14 14 13 11 10 7 7 6 6 5 5 2 5 6 6 7 8 8 8 9 9 8 8 4 4 5 4 4 8 7 4 3
18 17 16 14 14 16 16 14 16 16 16 15 14 15 14 12 11 9 8 7 7 7 4 4 7 7 8 9 10 9 9 9 10 10 6 7 11 3 5 6 5 4 3
18 18 18 17 16 17 17 17 17 15 16 16 15 14 14 10 10 11 9 7 7 7 7 7 9 10 11 11 9 8 8 8 10 13 7 10 11 5 5 2 3 3 4
16 18 19 19 18 18 19 19 17 16 17 17 14 14 13 13 11 10 8 8 8 8 10 10 9 10 10 9 8 8 10 10 10 11 9 9 9 6 6 5 6 4 3
11 15 16 18 17 18 18 18 18 18 17 17 15 14 14 14 12 11 12 11 9 9 8 9 9 9 9 9 9 9 9 9 9 8 11 10 7 6 5 5 8 5 3
7 12 15 17 17 17 17 17 18 17 16 16 15 15 14 14 13 13 12 12 10 9 8 9 8 8 9 8 8 9 11 11 11 12 11 13 9 3 4 5 6 6 2
8 9 13 15 15 16 16 16 16 17 17 15 13 14 13 13 13 13 13 11 11 9 8 8 8 7 8 8 9 10 11 11 12 14 14 14 7 4 6 6 6 6 4
6 8 12 13 14 15 15 16 16 17 16 15 15 14 13 12 12 12 11 10 10 10 10 8 7 7 8 8 9 10 10 11 12 12 11 11 10 5 3 4 6 7 3
10 8 10 12 13 13 14 15 16 16 15 15 15 15 15 15 13 12 11 11 11 11 9 7 6 5 6 8 9 10 11 10 9 8 9 9 8 7 1 6 8 7 6
11 8 9 11 12 13 13 13 14 15 15 14 15 15 13 12 11 10 10 10 11 10 8 6 5 4 5 6 8 8 7 6 8 9 8 8 9 5 2 7 8 8 5
13 14 12 11 14 14 13 14 14 14 14 15 15 13 12 12 11 9 9 10 10 8 6 6 2 2 4 10 9 9 6 7 6 6 6 6 7 6 8 10 12 9 6
15 14 13 11 10 12 12 13 13 12 13 14 14 13 13 12 11 9 10 10 10 9 8 5 4 4 5 10 9 9 3 4 5 6 6 5 5 8 9 12 14 7 8
16 16 14 11 9 9 9 11 12 13 13 13 13 14 14 13 11 11 11 11 10 9 7 6 5 5 6 10 10 10 4 4 6 7 7 7 6 7 11 10 8 4 2
16 15 15 11 8 7 6 10 11 11 12 13 12 13 14 13 12 12 11 10 8 8 7 6 5 6 8 12 13 13 3 5 6 6 8 5 6 5 7 10 9 6 6
16 17 16 14 9 7 6 9 11 11 12 12 10 10 10 11 12 11 10 8 9 8 7 7 7 5 7 13 14 12 4 4 4 5 5 10 7 3 7 8 9 6 5
17 17 16 13 11 9 6 9 10 10 10 11 11 11 10 8 9 9 9 10 9 9 9 7 6 7 7 9 12 14 6 7 3 3 3 4 4 3 2 0 6 4 8
16 15 14 14 11 9 9 9 10 9 8 10 14 9 12 10 7 11 9 10 11 11 8 6 4 4 3 6 9 7 7 9 4 3 2 5 4 4 4 3 7 6 4
14 14 13 15 13 9 8 9 5 7 10 12 14 13 12 14 9 9 9 7 8 10 9 4 3 2 1 2 7 1 5 4 3 5 4 6 7 6 6 7 6 7 5
14 13 15 14 13 11 5 9 7 8 9 13 14 15 12 15 10 8 8 6 5 4 5 6 3 2 2 4 5 5 2 6 3 4 3 2 2 7 6 6 5 5 1
13 12 12 14 14 11 7 4 8 13 11 11 13 14 9 12 15 9 8 10 10 9 4 6 4 3 2 7 7 6 7 7 6 5 3 3 1 3 3 3 4 3 5
13 13 13 12 13 11 9 4 6 10 11 12 10 10 9 12 12 13 13 18 15 15 16 12 11 7 10 8 8 7 8 7 6 0 3 3 2 2 4 4 4 3 2
Wind_Direction
204 202 203 206 207 202 202 206 207 209 212 209 225 227 245 224 239 237 240 251 226 204 225 301 249 265 288 342 318 313 303 345 15 325 348 312 70 61 56 63 80 105 56
208 202 203 207 211 208 208 205 211 203 206 210 232 265 267 245 291 275 287 212 190 197 235 277 306 339 302 291 287 300 313 328 74 354 296 344 109 93 67 51 105 106 352
202 203 207 209 213 214 206 207 206 204 207 224 213 229 247 246 232 203 210 170 195 231 237 251 277 278 270 269 300 263 278 310 337 145 223 237 230 356 123 265 336 280 223
212 206 201 209 214 216 210 206 205 201 200 205 225 226 247 243 201 250 212 238 222 252 254 247 254 259 295 306 282 262 265 256 289 137 210 254 326 142 278 218 209 231 250
209 210 209 204 212 212 207 202 198 197 205 195 222 212 232 232 236 239 209 242 240 255 282 240 245 255 266 302 296 293 277 278 260 246 204 198 240 266 127 265 272 205 219
209 208 206 206 207 204 205 198 191 199 197 196 203 219 239 241 250 231 266 256 258 264 209 282 262 270 284 276 296 298 267 261 277 285 270 195 212 191 193 235 251 239 229
209 204 204 204 202 199 197 196 189 195 196 199 206 211 223 230 242 243 247 277 283 278 284 265 268 278 291 289 290 288 286 278 284 285 279 227 252 190 219 233 245 216 192
201 202 195 196 199 197 195 198 191 198 198 202 207 211 219 226 232 234 263 261 272 278 288 275 282 286 285 291 294 293 290 305 284 289 275 270 277 214 221 199 223 203 190
206 199 199 195 196 194 194 199 197 196 200 203 205 211 216 227 244 247 240 244 255 266 248 259 281 289 290 288 299 284 304 303 293 290 288 272 289 228 225 185 209 231 173
205 207 209 206 201 199 198 196 194 197 200 203 206 211 213 218 224 230 233 247 253 252 267 269 274 283 287 290 295 293 293 302 291 298 294 287 287 227 197 191 211 230 121
217 212 211 209 210 206 200 202 202 200 200 205 204 211 212 214 216 223 227 232 235 237 244 257 271 282 289 292 294 288 283 296 301 303 302 301 300 228 187 194 205 135 128
300 224 210 204 205 209 208 200 202 203 204 203 208 207 210 214 214 223 227 227 229 228 236 251 266 278 286 290 294 297 309 306 306 307 309 312 317 280 202 190 160 150 174
301 268 207 207 200 205 201 205 201 206 202 199 201 205 206 210 218 222 227 227 225 227 238 238 255 278 293 308 302 302 303 306 311 320 316 313 325 312 203 188 130 143 139
319 289 229 209 206 202 200 202 207 207 199 197 204 207 209 211 217 222 221 217 219 221 225 235 254 281 295 298 307 321 313 318 310 320 331 348 351 334 264 135 139 142 142
331 321 260 231 221 209 201 201 209 207 199 199 204 206 210 209 210 213 216 212 208 213 218 221 226 260 301 29 334 315 305 303 335 346 349 15 349 346 99 130 139 143 153
340 336 319 254 231 226 210 204 202 203 200 199 205 203 199 197 204 204 206 201 197 192 184 199 223 50 328 7 331 298 324 12 358 360 2 9 21 64 88 109 142 132 192
352 342 324 302 258 236 226 222 208 201 195 198 203 199 196 197 203 201 192 188 182 176 177 124 139 87 45 358 327 308 326 11 13 20 12 42 47 77 89 83 91 102 28
349 343 331 317 288 235 231 222 203 195 200 199 195 195 196 199 191 183 178 178 175 172 149 144 128 105 59 1 344 325 303 22 26 26 34 52 73 101 122 124 125 104 143
342 344 343 320 306 278 238 213 200 191 196 200 200 189 186 181 176 175 171 173 149 140 133 130 121 93 58 15 4 339 15 26 50 44 30 54 94 112 160 136 135 142 165
338 340 344 341 329 302 251 225 203 196 195 181 186 181 183 171 170 165 152 141 137 138 133 124 96 74 74 34 16 2 344 46 19 49 65 39 75 95 177 153 155 165 130
331 335 333 335 339 316 265 246 229 201 177 176 155 162 153 166 144 122 136 130 145 127 102 112 100 87 30 63 27 8 344 349 14 47 49 83 49 58 40 304 158 169 155
330 331 330 331 333 334 300 260 237 200 172 167 137 150 133 124 125 125 139 146 129 110 119 121 127 140 102 36 58 20 5 339 332 25 43 109 116 105 78 265 90 121 165
329 327 327 323 319 339 297 276 244 145 176 144 139 140 120 120 137 140 128 138 159 148 151 141 184 151 83 86 122 117 326 323 302 15 4 109 141 155 138 102 141 190 182
319 321 321 315 311 319 290 265 160 149 157 144 134 131 128 115 132 152 147 144 162 162 134 145 151 108 84 41 21 352 351 197 221 157 109 94 49 30 81 153 176 235 225
304 309 309 309 308 311 292 271 176 162 160 154 146 137 120 121 102 61 55 92 53 6 105 77 59 357 62 44 346 317 346 348 20 309 137 152 191 231 217 248 195 193 168
298 300 299 296 299 303 287 252 199 174 148 152 152 145 145 139 139 142 113 79 99 77 74 57 44 99 71 14 356 357 4 359 300 300 54 40 59 191 261 279 276 242 151